Location: ???? ?????
(37.9132°N, 22.9869°E)
Time: 16:38:16
(UTC+00:00)

DELTA 2 R/B (1) - Pass Details

Date: 04 August 2024
Orbit: 788 x 801 km, 39.6° (Epoch: 18 September)

Event Time Altitude Azimuth Distance (km) Brightness Sun altitude
Rises 19:41:07 0° 283° (WNW) 3,300 7.7 -21.8°
Reaches altitude 10° 19:43:36 10° 283° (WNW) 2,370 6.8 -22.1°
Maximum altitude 19:49:12 83° 197° (SSW) 809 3.5 -22.9°
Enters shadow 19:50:28 55° 117° (ESE) 952 3.6 -23.0°
